Location: Dackenheim
(49.5215°N, 8.1854°E)
Time: 03:29:54
(UTC+00:00)

AO-91 - Pass Details

Date: 19 March 2026
Orbit: 425 x 637 km, 97.5° (Epoch: 13 April)

Event Time Altitude Azimuth Distance (km) Brightness Sun altitude
Rises 19:34:45 0° 24° (NNE) 2,949 ? -19.2°
Reaches altitude 10° 19:37:26 10° 39° (NE) 2,022 ? -19.6°
Enters shadow 19:38:03 13° 45° (NE) 1,832 ? -19.7°
